This is the latest recevied weather packets stored in our database for station/object SP1BMW-13. If no packets are shown the sender has not sent any weather packets the latest 10 day(s).
| Time | Temp. | Humidity | Pressure | Rain* | Wind** | Luminosity | Snow |
|---|---|---|---|---|---|---|---|
| 1788104927 | 25.56° C | 48% | 1008.3 hPa | 0 mm | 2.24 m/s, 306° | 182 W/m² | - |
| 1788104858 | 26.11° C | 48% | 1008.4 hPa | 0 mm | 3.58 m/s, 217° | 185 W/m² | - |
| 1788104798 | 26.11° C | 48% | 1008.5 hPa | 0 mm | 1.79 m/s, 153° | 187 W/m² | - |
| 1788104738 | 26.11° C | 48% | 1008.3 hPa | 0 mm | 2.24 m/s, 264° | 190 W/m² | - |
| 1788104678 | 26.11° C | 48% | 1008.5 hPa | 0 mm | 1.34 m/s, 354° | 194 W/m² | - |
| 1788104618 | 26.11° C | 48% | 1008.5 hPa | 0 mm | 1.79 m/s, 232° | 198 W/m² | - |
| 1788104558 | 26.11° C | 49% | 1008.5 hPa | 0 mm | 1.79 m/s, 209° | 200 W/m² | - |
| 1788104501 | 26.11° C | 48% | 1008.5 hPa | 0 mm | 0.89 m/s, 262° | 205 W/m² | - |
| 1788104440 | 26.11° C | 48% | 1008.6 hPa | 0 mm | 1.79 m/s, 282° | 214 W/m² | - |
| 1788104378 | 26.11° C | 48% | 1008.4 hPa | 0 mm | 2.24 m/s, 280° | 228 W/m² | - |
| 1788104320 | 26.11° C | 48% | 1008.3 hPa | 0 mm | 2.24 m/s, 236° | 240 W/m² | - |
| 1788104259 | 26.11° C | 48% | 1008.6 hPa | 0 mm | 0.89 m/s, 154° | 251 W/m² | - |
| 1788104201 | 26.11° C | 48% | 1008.4 hPa | 0 mm | 0.89 m/s, 86° | 254 W/m² | - |
| 1788104138 | 26.11° C | 48% | 1008.3 hPa | 0 mm | 2.24 m/s, 93° | 253 W/m² | - |
| 1788104078 | 26.11° C | 48% | 1008.4 hPa | 0 mm | 1.79 m/s, 315° | 252 W/m² | - |
| 1788104018 | 26.11° C | 48% | 1008.5 hPa | 0 mm | 1.79 m/s, 254° | 252 W/m² | - |
| 1788103958 | 26.11° C | 48% | 1008.4 hPa | 0 mm | 1.79 m/s, 261° | 254 W/m² | - |
| 1788103898 | 26.11° C | 47% | 1008.5 hPa | 0 mm | 2.68 m/s, 231° | 258 W/m² | - |
| 1788103837 | 26.11° C | 48% | 1008.3 hPa | 0 mm | 1.79 m/s, 160° | 264 W/m² | - |
| 1788103780 | 26.11° C | 47% | 1008.5 hPa | 0 mm | 1.34 m/s, 176° | 261 W/m² | - |
| 1788103718 | 26.11° C | 48% | 1008.2 hPa | 0 mm | 2.68 m/s, 265° | 265 W/m² | - |
| 1788103658 | 26.11° C | 48% | 1008.3 hPa | 0 mm | 1.79 m/s, 243° | 271 W/m² | - |
| 1788103598 | 26.11° C | 48% | 1008.4 hPa | 0 mm | 2.24 m/s, 232° | 283 W/m² | - |
| 1788103538 | 25.56° C | 48% | 1008.2 hPa | 0 mm | 1.34 m/s, 317° | 293 W/m² | - |
| 1788103478 | 25.56° C | 49% | 1008.2 hPa | 0 mm | 2.68 m/s, 212° | 293 W/m² | - |
* Rain latest hour (hover to see other rain measurements)
** Current wind speed in m/s (hover to see current wind gust speed)